DELTA 1 DEB, 10867

Orbit data source: Space-Track

DELTA 1 DEB, 10867 is space debris in SSO originally from a launch on Thu, 29 Jul 1976 UTC launched from the Air Force Western Test Range (AFWTR). Debris objects in space refer to the collection of defunct objects orbiting the Earth. Examples of debris include non-operational satellites, rocket bodies, and fragments generated from explosions, collisions, or faulty payload assembly.

Loading next visibility...
Identifier
10867, 1976-077CV
Orbit
SSO
Country
Flag of USUS
Related business
Manufacturer
Unknown
Mission
Spacecraft
Bus & Motor
Unknown
Mass
Unknown
Launch date (UTC)
1976-07-29 (50 years ago)
Launch vehicle
Unknown
Launch site
Air Force Western Test Range (AFWTR)
Object type
Payload
Rocket body
Debris
Shape & HBR
Unknown shape, 0.1 m
Radar Cross Section
Small (<0.1 m²)

Expand to show TLE details & history
Last TLE update: 12 hours ago

TLE from 12 hours ago
0 DELTA 1 DEB
1 10867U 76077CV  26131.92281764  .00000952  00000-0  23442-2 0  9994
2 10867 101.8286 135.6875 0407197 337.9937  47.2063 12.97938728312367
Epoch: 2026-05-11T22:08Z
TLE epoch observation values (Epoch: 2026-05-11T22:08:51.444Z)
Latitude
28.12369°
Longitude
-72.62509°
Altitude
1,068.904 km
Speed
7.417 km/s
True Right ascension
08h 37m 10s
True Declination
27° 59' 13"
Sunlit
Object was in daylight at epoch
Visualization orbit readout
Latitude
Unknown
Longitude
Unknown
Altitude
Unknown
Speed
Unknown
Apparent Right ascension
Unknown
Apparent Declination
Unknown
Sunlit
N/A
Visualization observer readout
Local Sidereal Time
18:13:36
Azimuth
Unknown
Elevation
Unknown
Doppler factor
Unknown
Orbital elements
Apogee altitude
1,578.994 km
Perigee altitude
956.325 km
Semi-major axis
7,645.797 km
Eccentricity
0.04072
Inclination
101.8286°
RAAN
135.6875°
Arg. of periapsis
337.9937°
True anomaly
50.75052°
Mean anomaly
47.2063°
Eccentric anomaly
48.96618°
Mean motion
3.24645 °/min
Orbital period
110.89 mins
BSTAR
0.0023442
Loading maneuver chart data...
Computing Atmospheric mass density...
Loading historical data...
Loading historical data...
Loading historical data...
Loading historical data...
Loading historical data...
Loading historical data...
Loading historical data...

Documentation

Showing up to 5 results
|